De Queen, AR

2:27 PM CST on January 18, 2017 (GMT -0600)
Helms Sevier County

Weather History for KDEQ - April, 2014

Change the Weather History Date:

Tuesday, April 8, 2014

  Actual Average Record
Temperature  
Mean Temperature 52 °F 59 °F  
Max Temperature 66 °F 72 °F 87 °F (1980)
Min Temperature 38 °F 46 °F 30 °F (1990)
Degree Days  
Heating Degree Days 13 7  
Month to date heating degree days 71 62  
Since 1 July heating degree days 3304 2930  
Cooling Degree Days 0 1  
Month to date cooling degree days 12 8  
Year to date cooling degree days 13 19  
Growing Degree Days 2 (Base 50)    
Moisture  
Dew Point 41 °F    
Average Humidity 62    
Maximum Humidity 100    
Minimum Humidity 23    
Precipitation  
Precipitation T in 0.10 in 2.80 in (1942)
Month to date precipitation 5.65 0.91  
Year to date precipitation 10.74 12.55  
Snow  
Snow 0.00 in - - ()
Month to date snowfall 0.0  
Since 1 July snowfall 1.2  
Snow Depth 0.00 in    
Sea Level Pressure  
Sea Level Pressure 29.96 in    
Wind  
Wind Speed 8 mph (NW)    
Max Wind Speed 28 mph    
Max Gust Speed 41 mph    
Visibility 8 miles    
Events Fog    
T = Trace of Precipitation, MM = Missing Value Source: NWS Daily Summary

Daily Weather History Graph

Daily Weather History Graph

Search for Another Location

Airport or City:

Trip Planner

Search our weather history database for the weather conditions in past years. The results will help you decide how hot, cold, wet, or windy it might be!

Date:

Astronomy

Apr. 08, 2014 Rise Set
Actual Time 6:55 AM CDT 7:43 PM CDT
Civil Twilight 6:30 AM CDT 8:09 PM CDT
Nautical Twilight 6:00 AM CDT 8:39 PM CDT
Astronomical Twilight 5:29 AM CDT 9:10 PM CDT
Moon 1:53 PM CDT (4/8) 2:53 AM CDT (4/8)
Length of Visible Light 13h 39m
Length of Day
12h 48m
Waxing Gibbous, 63% of the Moon is Illuminated
Apr 8
Waxing Gibbous
Apr 15
Full
Apr 22
Last Quarter
Apr 29
New
May 6
First Quarter

Hourly Weather History & Observations

Time (CDT) Temp. Windchill Dew Point Humidity Pressure Visibility Wind Dir Wind Speed Gust Speed Precip Events Conditions
12:53 AM 52.0 °F - 50.0 °F 93% 29.90 in 8.0 mi SW 4.6 mph - 0.00 in   Mostly Cloudy
1:53 AM 51.1 °F - 50.0 °F 96% 29.89 in 10.0 mi Calm Calm - N/A   Clear
2:53 AM 48.0 °F - 46.9 °F 96% 29.88 in 2.5 mi Calm Calm - N/A   Clear
2:59 AM 48.0 °F - 46.9 °F 96% 29.88 in 0.8 mi Calm Calm - N/A   Clear
3:13 AM 48.0 °F - 46.9 °F 96% 29.89 in 0.2 mi Calm Calm - N/A Fog Fog
3:22 AM 48.0 °F - 46.9 °F 96% 29.88 in 1.0 mi SW 3.5 mph - N/A   Scattered Clouds
3:26 AM 48.0 °F - 48.0 °F 100% 29.88 in 3.0 mi WSW 4.6 mph - N/A   Mostly Cloudy
3:53 AM 48.0 °F - 48.0 °F 100% 29.87 in 5.0 mi Calm Calm - N/A   Overcast
4:53 AM 48.0 °F - 46.9 °F 96% 29.86 in 7.0 mi WSW 3.5 mph - N/A   Overcast
5:53 AM 48.0 °F - 48.0 °F 100% 29.87 in 8.0 mi WSW 4.6 mph - N/A   Overcast
6:53 AM 48.9 °F - 46.9 °F 93% 29.89 in 10.0 mi WSW 4.6 mph - N/A   Mostly Cloudy
7:53 AM 48.9 °F - 48.0 °F 97% 29.92 in 10.0 mi WSW 3.5 mph - N/A   Mostly Cloudy
8:53 AM 52.0 °F - 48.0 °F 86% 29.94 in 10.0 mi WNW 5.8 mph - N/A   Mostly Cloudy
9:53 AM 55.0 °F - 46.0 °F 72% 29.95 in 10.0 mi NW 9.2 mph - N/A   Scattered Clouds
10:53 AM 60.1 °F - 46.0 °F 60% 29.96 in 10.0 mi NW 10.4 mph - N/A   Clear
11:53 AM 63.0 °F - 44.1 °F 50% 29.97 in 10.0 mi NW 16.1 mph 23.0 mph N/A   Partly Cloudy
12:53 PM 64.0 °F - 37.0 °F 37% 29.96 in 10.0 mi NNW 21.9 mph 34.5 mph N/A   Scattered Clouds
1:53 PM 64.0 °F - 36.0 °F 35% 29.96 in 10.0 mi NW 21.9 mph 34.5 mph 0.00 in   Partly Cloudy
2:53 PM 64.9 °F - 36.0 °F 34% 29.95 in 10.0 mi NNW 19.6 mph 31.1 mph 0.00 in   Partly Cloudy
3:53 PM 64.0 °F - 28.0 °F 26% 29.97 in 10.0 mi NNW 20.7 mph 38.0 mph 0.00 in   Scattered Clouds
4:53 PM 62.1 °F - 32.0 °F 32% 29.98 in 10.0 mi North 13.8 mph 24.2 mph N/A   Overcast
5:53 PM 62.1 °F - 27.0 °F 26% 30.00 in 10.0 mi North 16.1 mph 25.3 mph N/A   Partly Cloudy
6:53 PM 63.0 °F - 25.0 °F 24% 30.01 in 10.0 mi North 10.4 mph 20.7 mph N/A   Clear
7:53 PM 60.1 °F - 25.0 °F 26% 30.04 in 10.0 mi NNW 5.8 mph - N/A   Clear
8:53 PM 55.9 °F - 25.0 °F 30% 30.08 in 10.0 mi Calm Calm - N/A   Clear
9:53 PM 48.0 °F - 33.1 °F 56% 30.11 in 10.0 mi Calm Calm - N/A   Clear
10:53 PM 41.0 °F - 37.0 °F 86% 30.12 in 10.0 mi Calm Calm - N/A   Clear
11:53 PM 39.0 °F 36.8 °F 37.0 °F 93% 30.13 in 10.0 mi NE 3.5 mph - N/A   Clear